Time,TemperatureF,DewpointF,PressureIn,WindDirection,WindDirectionDegrees,WindSpeedMPH,WindSpeedGustMPH,Humidity,HourlyPrecipIn,Conditions,Clouds,dailyrainin,SoftwareType,DateUTC
2013-07-17 00:01:00,57.0,52.0,29.93,SE,138,3.0,5.0,84,0.00,,,0.01,,2013-07-17 06:01:00,
2013-07-17 00:11:00,57.0,52.0,29.93,SE,138,3.0,5.0,84,0.00,,,0.01,,2013-07-17 06:11:00,
2013-07-17 00:22:00,57.0,52.0,29.93,SSE,148,0.0,3.0,84,0.00,,,0.01,,2013-07-17 06:22:00,
2013-07-17 00:32:00,57.0,52.0,29.93,SE,142,1.0,3.0,84,0.01,,,0.02,,2013-07-17 06:32:00,
2013-07-17 00:43:00,57.0,52.0,29.93,SE,142,1.0,3.0,84,0.01,,,0.02,,2013-07-17 06:43:00,
2013-07-17 00:52:00,57.0,53.0,29.93,South,170,2.0,3.0,87,0.01,,,0.02,,2013-07-17 06:52:00,
2013-07-17 01:01:00,57.0,53.0,29.93,South,175,4.0,5.0,85,0.01,,,0.02,,2013-07-17 07:01:00,
2013-07-17 01:11:00,57.0,53.0,29.93,South,175,4.0,5.0,85,0.01,,,0.02,,2013-07-17 07:11:00,
2013-07-17 01:22:00,57.0,53.0,29.93,South,188,2.0,5.0,87,0.01,,,0.02,,2013-07-17 07:22:00,
2013-07-17 01:32:00,56.0,52.0,29.93,SSW,204,0.0,3.0,87,0.00,,,0.02,,2013-07-17 07:32:00,
2013-07-17 01:42:00,56.0,52.0,29.93,SSW,204,0.0,3.0,87,0.00,,,0.02,,2013-07-17 07:42:00,
2013-07-17 01:52:00,56.0,52.0,29.93,North,5,1.0,3.0,88,0.00,,,0.02,,2013-07-17 07:52:00,
2013-07-17 02:01:00,56.0,52.0,29.93,North,5,0.0,1.0,87,0.00,,,0.02,,2013-07-17 08:01:00,
2013-07-17 02:11:00,56.0,52.0,29.93,North,5,0.0,1.0,87,0.00,,,0.02,,2013-07-17 08:11:00,
2013-07-17 02:22:00,56.0,52.0,29.93,SSE,150,2.0,4.0,88,0.00,,,0.02,,2013-07-17 08:22:00,
2013-07-17 02:32:00,56.0,52.0,29.93,SSE,167,2.0,4.0,86,0.00,,,0.02,,2013-07-17 08:32:00,
2013-07-17 02:43:00,56.0,52.0,29.93,SSE,167,2.0,4.0,86,0.00,,,0.02,,2013-07-17 08:43:00,
2013-07-17 02:53:00,56.0,52.0,29.93,SE,144,1.0,5.0,88,0.00,,,0.02,,2013-07-17 08:53:00,
2013-07-17 03:02:00,56.0,51.0,29.93,SSE,167,4.0,7.0,84,0.00,,,0.02,,2013-07-17 09:02:00,
2013-07-17 03:12:00,56.0,51.0,29.93,SSE,167,4.0,7.0,84,0.00,,,0.02,,2013-07-17 09:12:00,
2013-07-17 03:22:00,56.0,51.0,29.93,South,182,2.0,5.0,83,0.00,,,0.02,,2013-07-17 09:22:00,
2013-07-17 03:32:00,56.0,52.0,29.93,South,182,1.0,2.0,85,0.00,,,0.02,,2013-07-17 09:32:00,
2013-07-17 03:43:00,56.0,52.0,29.93,South,182,1.0,2.0,85,0.00,,,0.02,,2013-07-17 09:43:00,
2013-07-17 03:52:00,56.0,52.0,29.94,South,180,2.0,4.0,85,0.00,,,0.02,,2013-07-17 09:52:00,
2013-07-17 04:01:00,56.0,51.0,29.94,South,191,0.0,3.0,84,0.00,,,0.02,,2013-07-17 10:01:00,
2013-07-17 04:11:00,56.0,51.0,29.94,South,191,0.0,3.0,84,0.00,,,0.02,,2013-07-17 10:11:00,
2013-07-17 04:22:00,55.0,51.0,29.93,South,191,0.0,0.0,87,0.00,,,0.02,,2013-07-17 10:22:00,
2013-07-17 04:32:00,55.0,52.0,29.94,South,191,0.0,0.0,89,0.00,,,0.02,,2013-07-17 10:32:00,
2013-07-17 04:43:00,55.0,52.0,29.94,South,191,0.0,0.0,89,0.00,,,0.02,,2013-07-17 10:43:00,
2013-07-17 04:52:00,55.0,51.0,29.94,South,191,2.0,4.0,87,0.00,,,0.02,,2013-07-17 10:52:00,
2013-07-17 05:01:00,55.0,51.0,29.94,West,279,1.0,3.0,87,0.00,,,0.02,,2013-07-17 11:01:00,
2013-07-17 05:11:00,55.0,51.0,29.94,West,279,1.0,3.0,87,0.00,,,0.02,,2013-07-17 11:11:00,
2013-07-17 05:22:00,55.0,52.0,29.94,WNW,284,0.0,3.0,89,0.00,,,0.02,,2013-07-17 11:22:00,
2013-07-17 05:32:00,55.0,52.0,29.95,WNW,284,0.0,2.0,90,0.00,,,0.02,,2013-07-17 11:32:00,
2013-07-17 05:42:00,55.0,52.0,29.95,WNW,284,0.0,2.0,90,0.00,,,0.02,,2013-07-17 11:42:00,
2013-07-17 05:52:00,55.0,52.0,29.95,WNW,284,0.0,1.0,88,0.00,,,0.02,,2013-07-17 11:52:00,
2013-07-17 06:01:00,55.0,52.0,29.95,WNW,284,0.0,0.0,89,0.00,,,0.02,,2013-07-17 12:01:00,
2013-07-17 06:12:00,55.0,52.0,29.95,WNW,284,0.0,0.0,89,0.00,,,0.02,,2013-07-17 12:12:00,
2013-07-17 06:22:00,55.0,52.0,29.95,WNW,302,1.0,3.0,89,0.00,,,0.02,,2013-07-17 12:22:00,
2013-07-17 06:32:00,54.0,51.0,29.95,NW,306,3.0,5.0,90,0.00,,,0.02,,2013-07-17 12:32:00,
2013-07-17 06:42:00,54.0,51.0,29.95,NW,306,3.0,5.0,90,0.00,,,0.02,,2013-07-17 12:42:00,
2013-07-17 06:53:00,54.0,51.0,29.96,NW,306,0.0,2.0,90,0.00,,,0.02,,2013-07-17 12:53:00,
2013-07-17 07:01:00,55.0,52.0,29.95,East,81,2.0,4.0,90,0.00,,,0.02,,2013-07-17 13:01:00,
2013-07-17 07:12:00,55.0,52.0,29.95,East,81,2.0,4.0,90,0.00,,,0.02,,2013-07-17 13:12:00,
2013-07-17 07:22:00,55.0,52.0,29.95,East,81,0.0,2.0,88,0.00,,,0.02,,2013-07-17 13:22:00,
2013-07-17 07:32:00,57.0,53.0,29.95,ENE,71,1.0,3.0,85,0.00,,,0.02,,2013-07-17 13:32:00,
2013-07-17 07:43:00,57.0,53.0,29.95,ENE,71,1.0,3.0,85,0.00,,,0.02,,2013-07-17 13:43:00,
2013-07-17 07:52:00,57.0,52.0,29.95,SE,130,1.0,5.0,82,0.00,,,0.02,,2013-07-17 13:52:00,
2013-07-17 08:02:00,57.0,53.0,29.95,East,88,2.0,4.0,86,0.00,,,0.02,,2013-07-17 14:02:00,
2013-07-17 08:11:00,57.0,53.0,29.95,East,88,2.0,4.0,86,0.00,,,0.02,,2013-07-17 14:11:00,
2013-07-17 08:22:00,57.0,52.0,29.95,SE,139,3.0,5.0,84,0.00,,,0.02,,2013-07-17 14:22:00,
2013-07-17 08:32:00,57.0,52.0,29.95,ESE,117,3.0,5.0,84,0.00,,,0.02,,2013-07-17 14:32:00,
2013-07-17 08:43:00,57.0,52.0,29.95,ESE,117,3.0,5.0,84,0.00,,,0.02,,2013-07-17 14:43:00,
2013-07-17 08:52:00,58.0,52.0,29.96,SE,130,3.0,8.0,81,0.00,,,0.02,,2013-07-17 14:52:00,
2013-07-17 09:01:00,58.0,52.0,29.95,East,98,2.0,6.0,81,0.00,,,0.02,,2013-07-17 15:01:00,
2013-07-17 09:12:00,58.0,52.0,29.95,East,98,2.0,6.0,81,0.00,,,0.02,,2013-07-17 15:12:00,
2013-07-17 09:22:00,58.0,52.0,29.95,SE,141,1.0,3.0,80,0.00,,,0.02,,2013-07-17 15:22:00,
2013-07-17 09:32:00,58.0,52.0,29.95,SE,132,2.0,4.0,81,0.00,,,0.02,,2013-07-17 15:32:00,
2013-07-17 09:42:00,58.0,52.0,29.95,SE,132,2.0,4.0,81,0.00,,,0.02,,2013-07-17 15:42:00,
2013-07-17 09:52:00,58.0,52.0,29.94,SE,132,0.0,2.0,80,0.00,,,0.02,,2013-07-17 15:52:00,
2013-07-17 10:02:00,59.0,52.0,29.94,SE,132,0.0,0.0,79,0.00,,,0.02,,2013-07-17 16:02:00,
2013-07-17 10:11:00,59.0,52.0,29.94,SE,132,0.0,0.0,79,0.00,,,0.02,,2013-07-17 16:11:00,
2013-07-17 10:21:00,59.0,52.0,29.94,NE,34,0.0,0.0,77,0.00,,,0.02,,2013-07-17 16:21:00,
2013-07-17 10:33:00,60.0,53.0,29.94,NNW,335,0.0,0.0,77,0.00,,,0.02,,2013-07-17 16:33:00,
2013-07-17 10:42:00,60.0,53.0,29.94,NNW,335,0.0,0.0,77,0.00,,,0.02,,2013-07-17 16:42:00,
2013-07-17 10:52:00,60.0,53.0,29.94,NNW,335,0.0,0.0,78,0.00,,,0.02,,2013-07-17 16:52:00,
2013-07-17 11:01:00,61.0,53.0,29.94,NE,40,0.0,4.0,76,0.00,,,0.02,,2013-07-17 17:01:00,
2013-07-17 11:11:00,61.0,53.0,29.94,NE,40,0.0,4.0,76,0.00,,,0.02,,2013-07-17 17:11:00,
2013-07-17 11:21:00,61.0,53.0,29.94,ENE,57,0.0,3.0,74,0.00,,,0.02,,2013-07-17 17:21:00,
2013-07-17 11:32:00,62.0,54.0,29.94,NE,42,1.0,3.0,74,0.00,,,0.02,,2013-07-17 17:32:00,
2013-07-17 11:43:00,62.0,54.0,29.94,NE,42,1.0,3.0,74,0.00,,,0.02,,2013-07-17 17:43:00,
2013-07-17 11:52:00,63.0,53.0,29.93,North,5,1.0,3.0,71,0.00,,,0.02,,2013-07-17 17:52:00,
2013-07-17 12:01:00,63.0,53.0,29.93,North,5,0.0,1.0,71,0.00,,,0.02,,2013-07-17 18:01:00,
2013-07-17 12:11:00,63.0,53.0,29.93,North,5,0.0,1.0,71,0.00,,,0.02,,2013-07-17 18:11:00,
2013-07-17 12:22:00,64.0,54.0,29.93,North,355,2.0,4.0,71,0.00,,,0.02,,2013-07-17 18:22:00,
2013-07-17 12:32:00,65.0,55.0,29.92,NNE,13,2.0,4.0,69,0.00,,,0.02,,2013-07-17 18:32:00,
2013-07-17 12:43:00,65.0,55.0,29.92,NNE,13,2.0,4.0,69,0.00,,,0.02,,2013-07-17 18:43:00,
2013-07-17 12:52:00,65.0,55.0,29.92,ENE,77,0.0,0.0,69,0.00,,,0.02,,2013-07-17 18:52:00,
2013-07-17 13:22:00,66.0,54.0,29.91,NE,54,1.0,3.0,65,0.00,,,0.02,,2013-07-17 19:22:00,
2013-07-17 13:32:00,66.0,54.0,29.91,NE,54,1.0,3.0,65,0.00,,,0.02,,2013-07-17 19:32:00,
2013-07-17 13:43:00,67.0,54.0,29.91,NE,35,2.0,4.0,64,0.00,,,0.02,,2013-07-17 19:43:00,
2013-07-17 13:53:00,68.0,55.0,29.90,ENE,60,1.0,3.0,64,0.00,,,0.02,,2013-07-17 19:53:00,
2013-07-17 14:01:00,68.0,55.0,29.90,ENE,60,1.0,3.0,64,0.00,,,0.02,,2013-07-17 20:01:00,
2013-07-17 14:11:00,69.0,56.0,29.90,NNW,328,2.0,6.0,63,0.00,,,0.02,,2013-07-17 20:11:00,
2013-07-17 14:22:00,71.0,56.0,29.89,NE,36,1.0,3.0,60,0.00,,,0.02,,2013-07-17 20:22:00,
2013-07-17 14:33:00,71.0,56.0,29.89,NE,36,1.0,3.0,60,0.00,,,0.02,,2013-07-17 20:33:00,
2013-07-17 14:43:00,72.0,57.0,29.88,NNE,28,2.0,5.0,59,0.00,,,0.02,,2013-07-17 20:43:00,
2013-07-17 14:52:00,72.0,56.0,29.88,NE,44,3.0,6.0,57,0.00,,,0.02,,2013-07-17 20:52:00,
2013-07-17 15:01:00,72.0,56.0,29.88,NE,44,3.0,6.0,57,0.00,,,0.02,,2013-07-17 21:01:00,
2013-07-17 15:12:00,74.0,57.0,29.86,NE,34,1.0,5.0,55,0.00,,,0.02,,2013-07-17 21:12:00,
2013-07-17 15:22:00,75.0,58.0,29.85,ESE,120,0.0,5.0,55,0.00,,,0.02,,2013-07-17 21:22:00,
2013-07-17 15:32:00,75.0,58.0,29.85,ESE,120,0.0,5.0,55,0.00,,,0.02,,2013-07-17 21:32:00,
2013-07-17 15:42:00,76.0,58.0,29.85,NE,53,3.0,5.0,53,0.00,,,0.02,,2013-07-17 21:42:00,
2013-07-17 15:52:00,78.0,59.0,29.84,WNW,295,3.0,6.0,52,0.00,,,0.02,,2013-07-17 21:52:00,
2013-07-17 16:01:00,78.0,59.0,29.84,WNW,295,3.0,6.0,52,0.00,,,0.02,,2013-07-17 22:01:00,
2013-07-17 16:11:00,79.0,58.0,29.83,South,169,1.0,5.0,49,0.00,,,0.02,,2013-07-17 22:11:00,
2013-07-17 16:21:00,80.0,59.0,29.83,NNW,342,0.0,2.0,48,0.00,,,0.02,,2013-07-17 22:21:00,
2013-07-17 16:32:00,80.0,59.0,29.83,NNW,342,0.0,2.0,48,0.00,,,0.02,,2013-07-17 22:32:00,
2013-07-17 16:43:00,80.0,59.0,29.83,North,11,0.0,5.0,48,0.00,,,0.02,,2013-07-17 22:43:00,
2013-07-17 16:53:00,81.0,58.0,29.82,WNW,299,0.0,6.0,46,0.00,,,0.02,,2013-07-17 22:53:00,
2013-07-17 17:01:00,81.0,58.0,29.82,WNW,299,0.0,6.0,46,0.00,,,0.02,,2013-07-17 23:01:00,
2013-07-17 17:11:00,82.0,59.0,29.82,West,280,5.0,8.0,45,0.00,,,0.02,,2013-07-17 23:11:00,
2013-07-17 17:22:00,81.0,57.0,29.80,NNE,26,8.0,12.0,44,0.00,,,0.02,,2013-07-17 23:22:00,
2013-07-17 17:32:00,81.0,57.0,29.80,NNE,26,8.0,12.0,44,0.00,,,0.02,,2013-07-17 23:32:00,
2013-07-17 17:43:00,82.0,57.0,29.81,North,9,11.0,17.0,43,0.00,,,0.02,,2013-07-17 23:43:00,
2013-07-17 17:52:00,80.0,56.0,29.81,NNW,347,11.0,19.0,44,0.00,,,0.02,,2013-07-17 23:52:00,
2013-07-17 18:01:00,80.0,56.0,29.81,NNW,347,11.0,19.0,44,0.00,,,0.02,,2013-07-18 00:01:00,
2013-07-17 18:11:00,80.0,57.0,29.80,NW,326,5.0,12.0,45,0.00,,,0.02,,2013-07-18 00:11:00,
2013-07-17 18:22:00,81.0,58.0,29.79,North,360,7.0,10.0,45,0.00,,,0.01,,2013-07-18 00:22:00,
2013-07-17 18:33:00,81.0,58.0,29.79,North,360,7.0,10.0,45,0.00,,,0.01,,2013-07-18 00:33:00,
2013-07-17 18:43:00,81.0,56.0,29.78,NNW,342,4.0,8.0,42,0.00,,,0.01,,2013-07-18 00:43:00,
2013-07-17 18:52:00,80.0,57.0,29.78,WSW,257,4.0,6.0,45,0.00,,,0.01,,2013-07-18 00:52:00,
2013-07-17 19:01:00,80.0,57.0,29.78,WSW,257,4.0,6.0,45,0.00,,,0.01,,2013-07-18 01:01:00,
2013-07-17 19:11:00,80.0,57.0,29.79,WNW,299,9.0,17.0,45,0.00,,,0.01,,2013-07-18 01:11:00,
2013-07-17 20:32:00,67.0,54.0,29.83,West,277,12.0,17.0,63,0.38,,,0.42,,2013-07-18 02:32:00,
2013-07-17 20:43:00,70.0,55.0,29.83,WNW,290,11.0,19.0,60,0.00,,,0.42,,2013-07-18 02:43:00,
2013-07-17 20:52:00,68.0,54.0,29.84,WNW,288,11.0,15.0,62,0.00,,,0.42,,2013-07-18 02:52:00,
2013-07-17 21:01:00,68.0,54.0,29.84,WNW,288,11.0,15.0,62,0.00,,,0.42,,2013-07-18 03:01:00,
2013-07-17 21:11:00,67.0,56.0,29.83,SW,232,6.0,10.0,67,0.00,,,0.42,,2013-07-18 03:11:00,
2013-07-17 21:22:00,71.0,52.0,29.85,SW,224,11.0,18.0,51,0.00,,,0.42,,2013-07-18 03:22:00,
2013-07-17 21:32:00,71.0,52.0,29.85,SW,224,11.0,18.0,51,0.00,,,0.42,,2013-07-18 03:32:00,
2013-07-17 21:43:00,72.0,55.0,29.86,NW,306,8.0,13.0,55,0.00,,,0.42,,2013-07-18 03:43:00,
2013-07-17 21:52:00,69.0,55.0,29.86,WNW,282,6.0,9.0,61,0.00,,,0.42,,2013-07-18 03:52:00,
2013-07-17 22:02:00,69.0,55.0,29.86,WNW,282,6.0,9.0,61,0.00,,,0.42,,2013-07-18 04:02:00,
2013-07-17 22:12:00,68.0,56.0,29.85,WNW,298,5.0,7.0,66,0.00,,,0.42,,2013-07-18 04:12:00,
2013-07-17 22:22:00,68.0,56.0,29.86,SSE,167,5.0,9.0,66,0.00,,,0.42,,2013-07-18 04:22:00,
2013-07-17 22:32:00,68.0,56.0,29.86,SSE,167,5.0,9.0,66,0.00,,,0.42,,2013-07-18 04:32:00,
2013-07-17 22:43:00,67.0,56.0,29.85,West,260,1.0,4.0,68,0.00,,,0.42,,2013-07-18 04:43:00,
2013-07-17 22:52:00,70.0,53.0,29.85,SSW,202,9.0,11.0,55,0.00,,,0.42,,2013-07-18 04:52:00,
2013-07-17 23:02:00,70.0,53.0,29.85,SSW,202,9.0,11.0,55,0.00,,,0.42,,2013-07-18 05:02:00,
2013-07-17 23:11:00,71.0,52.0,29.85,SSW,201,7.0,11.0,51,0.00,,,0.42,,2013-07-18 05:11:00,
2013-07-17 23:21:00,69.0,52.0,29.85,West,274,5.0,9.0,55,0.00,,,0.42,,2013-07-18 05:21:00,
2013-07-17 23:32:00,69.0,52.0,29.85,West,274,5.0,9.0,55,0.00,,,0.42,,2013-07-18 05:32:00,
2013-07-17 23:42:00,68.0,51.0,29.83,SSW,211,4.0,6.0,55,0.00,,,0.42,,2013-07-18 05:42:00,
2013-07-17 23:52:00,68.0,52.0,29.84,WSW,243,8.0,12.0,57,0.00,,,0.42,,2013-07-18 05:52:00,